{"data":{"norad_id":63071,"intl_designator":"2025-035V","name":"STARLINK-33624","alt_names":[],"object_type":"PAYLOAD","status":"ACTIVE","operator":null,"country":"US","launch_date":"2025-02-21","launch_site_code":"AFETR","launch_vehicle":null,"mission":null,"orbit_class":"UNKNOWN","rcs_meters":null,"size_class":null,"mass_kg":null,"dimensions":null,"purposes":["comms"],"wikipedia_slug":null,"has_3d_model":false,"image_url":null,"decayed_at":null,"tle_current":{"epoch":"2026-05-25T04:02:18.328416Z","epoch_age_seconds":67461,"freshness":"FRESH","line1":"1 63071U 25035V   26145.16826769  .00021323  00000+0  78152-3 0  9991","line2":"2 63071  43.0015  71.9164 0001408 264.6642  95.4049 15.27606112 71351","mean_motion":15.27606112,"eccentricity":0.0001408,"inclination_deg":43.0015,"raan_deg":71.9164,"arg_perigee_deg":264.6642,"mean_anomaly_deg":95.4049,"bstar":0.00078152,"rev_number":7135,"period_min":94.265137373318,"perigee_km":482.00486443816,"apogee_km":483.93695242518,"semimajor_km":6861.1079084317,"source":"CELESTRAK","updated_at":"2026-05-25T13:38:19.875450Z"}}}